SUZAKU (ASTRO-EII) (28773 NORAD) Tracking and Keplerian Element Data

This shows tracking and keplerian element data for the satellite.

Feedback or suggestion? Click here.




ElementValue
Catalog28773
NameSUZAKU (ASTRO-EII)
Epoch Orbit74019
Epoch Day348.49132329
Epoch Year2018
RAAN357.1664
Inclination31.3838
Eccentricity0.0004527
Argument of Perigee65.4819
Mean Anonmoly294.63
Mean Motion15.1682887
Decay Rate7.58E-06
L11 28773U 05025A 18348.49132329 .00000758 00000-0 33258-4 0 9991
L22 28773 31.3838 357.1664 0004527 65.4819 294.6300 15.16828870740199

Live tracking and technical data element details for SUZAKU (ASTRO-EII) (NORAD 28773). SUZAKU (ASTRO-EII) can be tracked NOW for your location showing map with azimuth and elevation plus other details from your city location.

Track the satellite on the map from your city or location and see movement details for azimuth, elevation, latitude, longitude, range, height, and movement on the map or in text.







IsCatalogInMostPopularTable: catalog: 28773, numindb: 33
Update: records affected: 1



GetName: 28773 SUZAKU (ASTRO-EII)

Hit Count: updated at: Sun, 16 Dec 2018 03:00:20 GMT